W4SNA-2 Weather Reports


time (UTC)temp
C
wind
direction
speed
KPH
gust
KPH
rain 1hr
cm
rain 24hr
cm
rain mn
cm
humidity
%
barometer
mb
20260905045428 25 0 0.0 6.4 0.00 0.00 0.00 79 1018.9
20260905044928 25 0 0.0 6.4 0.00 0.00 0.00 79 1019.0
20260905044428 25 0 0.0 4.8 0.00 0.00 0.00 75 1019.0
20260905043928 25 0 0.0 11.3 0.00 0.00 0.00 73 1019.0
20260905043430 25 280 3.2 12.9 0.00 0.00 0.00 74 1019.0
20260905042928 25 280 8.0 12.9 0.00 0.00 0.00 74 1018.9
20260905042429 25 280 8.0 12.9 0.00 0.00 0.00 74 1018.8
20260905041928 25 280 8.0 12.9 0.00 0.00 0.00 75 1018.8
20260905041429 25 280 6.4 11.3 0.00 0.00 0.00 75 1018.9
20260905040930 26 280 4.8 11.3 0.00 0.00 0.00 75 1019.0
20260905040428 26 280 3.2 9.7 0.00 0.00 0.00 74 1018.9
20260905035928 26 280 1.6 9.7 0.00 0.00 0.00 73 1019.1
20260905035343 26 0 0.0 3.2 0.00 0.00 0.00 72 1019.1
20260905034811 26 0 0.0 3.2 0.00 0.00 0.00 72 1019.1
20260905033651 26 0 0.0 3.2 0.00 0.00 0.00 72 1018.8
20260905033149 26 0 0.0 3.2 0.00 0.00 0.00 72 1018.8
20260905032649 26 0 0.0 0.0 0.00 0.00 0.00 71 1018.8
20260905032149 26 0 0.0 0.0 0.00 0.00 0.00 71 1018.7
20260905031649 26 0 0.0 0.0 0.00 0.00 0.00 72 1018.7
20260905031151 26 0 0.0 0.0 0.00 0.00 0.00 72 1018.5
20260905030649 26 0 0.0 0.0 0.00 0.00 0.00 73 1018.4
20260905030149 26 0 0.0 0.0 0.00 0.00 0.00 75 1018.3
20260905025649 26 0 0.0 0.0 0.00 0.00 0.00 75 1018.3
20260905025148 26 0 0.0 0.0 0.00 0.00 0.00 77 1018.4
20260905024649 26 0 0.0 0.0 0.00 0.00 0.00 77 1018.4
20260905024149 26 0 0.0 1.6 0.00 0.00 0.00 77 1018.4
20260905023649 26 0 0.0 1.6 0.00 0.00 0.00 76 1018.3
20260905023149 26 0 0.0 4.8 0.00 0.00 0.00 75 1018.2
20260905022649 26 0 0.0 4.8 0.00 0.00 0.00 74 1017.8
20260905022149 27 0 0.0 3.2 0.00 0.00 0.00 71 1017.9
20260905021649 27 0 0.0 0.0 0.00 0.00 0.00 67 1017.9
20260905021149 27 0 0.0 0.0 0.00 0.00 0.00 67 1017.9
20260905020650 27 0 0.0 0.0 0.00 0.00 0.00 67 1017.9
20260905020149 27 0 0.0 3.2 0.00 0.00 0.00 67 1018.0
20260905015649 27 0 0.0 3.2 0.00 0.00 0.00 67 1017.9
20260905015042 27 0 0.0 9.7 0.00 0.00 0.00 68 1017.9
20260905014542 27 0 0.0 9.7 0.00 0.00 0.00 68 1017.8
20260905014043 26 0 0.0 9.7 0.00 0.00 0.00 68 1017.7
20260905013542 26 0 0.0 9.7 0.00 0.00 0.00 69 1017.6
20260905013042 26 280 1.6 9.7 0.00 0.00 0.00 69 1017.7
20260905012542 26 0 0.0 9.7 0.00 0.00 0.00 69 1017.7
20260905011742 26 0 0.0 6.4 0.00 0.00 0.00 69 1017.7
20260905011241 26 0 0.0 11.3 0.00 0.00 0.00 69 1017.6
20260905010854 26 280 1.6 11.3 0.00 0.00 0.00 69 1017.7
20260905010741 26 280 1.6 11.3 0.00 0.00 0.00 69 1017.7
20260905010242 26 280 1.6 9.7 0.00 0.00 0.00 70 1017.8
20260905005741 26 280 1.6 6.4 0.00 0.00 0.00 70 1017.7
20260905005316 26 0 0.0 4.8 0.00 0.00 0.00 70 1017.8
20260905005241 26 0 0.0 4.8 0.00 0.00 0.00 70 1017.8
20260905004741 26 0 0.0 0.0 0.00 0.00 0.00 70 1017.8
20260905004242 26 0 0.0 1.6 0.00 0.00 0.00 71 1017.9
20260905003745 26 0 0.0 1.6 0.00 0.00 0.00 72 1017.9
20260905003241 26 0 0.0 0.0 0.00 0.00 0.00 71 1018.0
20260905002741 26 0 0.0 0.0 0.00 0.00 0.00 71 1019.0
20260905002241 26 0 0.0 0.0 0.00 0.00 0.00 71 1019.0
20260905001741 26 0 0.0 0.0 0.00 0.00 0.00 72 1019.0
20260905001241 27 0 0.0 0.0 0.00 0.00 0.00 72 1019.3
20260905000741 27 0 0.0 0.0 0.00 0.00 0.00 71 1019.3
20260905000241 27 0 0.0 0.0 0.00 0.00 0.00 71 1019.4
20260904235741 27 0 0.0 1.6 0.00 0.00 0.00 71 1019.6
20260904235241 27 0 0.0 6.4 0.00 0.00 0.00 72 1019.4
20260904234741 27 0 0.0 6.4 0.00 0.00 0.00 72 1019.3
20260904234241 27 0 0.0 3.2 0.00 0.00 0.00 72 1019.3
20260904233741 27 0 0.0 3.2 0.00 0.00 0.00 71 1019.2
20260904233241 27 0 0.0 3.2 0.00 0.00 0.00 71 1019.2
20260904232745 27 0 0.0 9.7 0.00 0.00 0.00 72 1019.1
20260904232242 27 280 1.6 12.9 0.00 0.00 0.00 72 1019.2
20260904231741 27 280 6.4 16.1 0.00 0.00 0.00 71 1019.0
20260904231243 27 280 8.0 16.1 0.00 0.00 0.00 72 1018.9
20260904230741 26 280 6.4 12.9 0.00 0.00 0.00 74 1019.0
20260904230246 26 280 6.4 14.5 0.00 0.00 0.00 74 1019.2
20260904225743 26 280 4.8 14.5 0.00 0.00 0.00 74 1019.2
20260904225242 26 280 8.0 14.5 0.00 0.00 0.00 73 1019.2
20260904224741 27 280 8.0 14.5 0.00 0.00 0.00 72 1019.1
20260904224242 27 279 8.0 17.7 0.00 0.00 0.00 71 1019.0
20260904223741 27 280 9.7 17.7 0.00 0.00 0.00 71 1019.0
20260904223242 28 280 4.8 11.3 0.00 0.00 0.00 71 1019.1
20260904222741 28 0 0.0 6.4 0.00 0.00 0.00 67 1019.0
20260904222242 28 280 1.6 9.7 0.00 0.00 0.00 67 1018.9
20260904221741 28 0 0.0 9.7 0.00 0.00 0.00 67 1018.9
20260904221245 28 280 1.6 9.7 0.00 0.00 0.00 67 1018.8
20260904220741 28 0 0.0 6.4 0.00 0.00 0.00 68 1018.8
20260904220241 28 0 0.0 6.4 0.00 0.00 0.00 70 1019.0
20260904215741 28 0 0.0 12.9 0.00 0.00 0.00 68 1019.0
20260904215241 28 280 3.2 12.9 0.00 0.00 0.00 68 1019.0
20260904214741 28 280 4.8 12.9 0.00 0.00 0.00 69 1019.0
20260904214241 29 280 1.6 11.3 0.00 0.00 0.00 73 1019.1
20260904213741 29 280 1.6 12.9 0.00 0.00 0.00 72 1019.0
20260904213241 29 280 3.2 12.9 0.00 0.00 0.00 71 1018.9
20260904212741 30 280 3.2 12.9 0.00 0.00 0.00 70 1018.9
20260904212241 30 280 3.2 12.9 0.00 0.00 0.00 68 1018.7
20260904211741 31 280 3.2 14.5 0.00 0.00 0.00 68 1018.6
20260904211243 31 280 4.8 14.5 0.00 0.00 0.00 67 1018.6
20260904210922 32 0 0.0 11.3 0.00 0.00 0.00 63 1018.5
20260904210742 31 280 1.6 12.9 0.00 0.00 0.00 67 1018.6
20260904210241 31 280 3.2 12.9 0.00 0.00 0.00 64 1018.5
20260904205741 32 0 0.0 11.3 0.00 0.00 0.00 63 1018.5
20260904205241 32 0 0.0 9.7 0.00 0.00 0.00 63 1018.6
20260904204741 32 280 3.2 9.7 0.00 0.00 0.00 62 1018.4
20260904204241 32 0 0.0 4.8 0.00 0.00 0.00 63 1018.6
20260904203741 32 0 0.0 4.8 0.00 0.00 0.00 63 1018.5
20260904203241 31 0 0.0 9.7 0.00 0.00 0.00 64 1018.4
20260904202741 32 280 1.6 9.7 0.00 0.00 0.00 63 1018.5
20260904202241 32 0 0.0 9.7 0.00 0.00 0.00 62 1018.7
20260904201741 32 0 0.0 4.8 0.00 0.00 0.00 62 1018.7
20260904201241 32 0 0.0 1.6 0.00 0.00 0.00 60 1018.5
20260904200741 32 0 0.0 1.6 0.00 0.00 0.00 59 1018.5
20260904200241 32 0 0.0 1.6 0.00 0.00 0.00 58 1018.7
20260904195741 33 0 0.0 1.6 0.00 0.00 0.00 58 1018.7
20260904195241 33 0 0.0 3.2 0.00 0.00 0.00 57 1018.6
20260904194741 33 0 0.0 4.8 0.00 0.00 0.00 57 1018.7
20260904194241 33 0 0.0 6.4 0.00 0.00 0.00 57 1018.8
20260904193741 33 280 1.6 9.7 0.00 0.00 0.00 57 1018.9
20260904193241 33 280 1.6 9.7 0.00 0.00 0.00 56 1019.0
20260904192741 33 0 0.0 9.7 0.00 0.00 0.00 56 1019.0
20260904192606 33 280 3.2 9.7 0.00 0.00 0.00 55 1019.1
20260904192241 33 280 3.2 9.7 0.00 0.00 0.00 55 1019.1
20260904191741 33 0 0.0 6.4 0.00 0.00 0.00 56 1019.2
20260904191241 33 0 0.0 11.3 0.00 0.00 0.00 55 1019.3
20260904191155 33 0 0.0 4.8 0.00 0.00 0.00 53 1019.6
20260904190741 33 280 3.2 11.3 0.00 0.00 0.00 54 1019.5
20260904190241 33 0 0.0 4.8 0.00 0.00 0.00 53 1019.6
20260904185741 33 0 0.0 6.4 0.00 0.00 0.00 54 1019.7
20260904185241 33 280 1.6 6.4 0.00 0.00 0.00 54 1019.7
20260904184741 33 0 0.0 4.8 0.00 0.00 0.00 56 1019.8
20260904184241 33 280 1.6 4.8 0.00 0.00 0.00 57 1019.8
20260904183741 33 280 1.6 9.7 0.00 0.00 0.00 58 1019.9
20260904183241 32 280 3.2 14.5 0.00 0.00 0.00 58 1019.9
20260904182741 32 280 3.2 14.5 0.00 0.00 0.00 59 1020.1
20260904182241 32 280 3.2 9.7 0.00 0.00 0.00 58 1020.2
20260904181741 33 280 1.6 9.7 0.00 0.00 0.00 56 1020.2
20260904181241 33 280 1.6 9.7 0.00 0.00 0.00 57 1020.3
20260904180741 32 0 0.0 11.3 0.00 0.00 0.00 57 1020.4
20260904180242 32 280 3.2 11.3 0.00 0.00 0.00 59 1020.5
20260904175741 32 280 1.6 6.4 0.00 0.00 0.00 59 1020.5
20260904175241 32 0 0.0 16.1 0.00 0.00 0.00 58 1020.6
20260904174741 32 280 1.6 16.1 0.00 0.00 0.00 58 1020.7
20260904174241 32 280 1.6 11.3 0.00 0.00 0.00 57 1020.7
20260904173741 32 280 1.6 11.3 0.00 0.00 0.00 58 1020.8
20260904173241 32 280 3.2 9.7 0.00 0.00 0.00 58 1020.8
20260904172741 32 0 0.0 6.4 0.00 0.00 0.00 60 1020.7
20260904172241 32 0 0.0 9.7 0.00 0.00 0.00 60 1020.8
20260904171741 32 280 1.6 9.7 0.00 0.00 0.00 60 1020.8
20260904171328 32 0 0.0 9.7 0.00 0.00 0.00 60 1020.9
20260904171242 32 0 0.0 9.7 0.00 0.00 0.00 60 1020.9
20260904170741 32 280 3.2 9.7 0.00 0.00 0.00 61 1021.0
20260904170422 32 280 1.6 6.4 0.00 0.00 0.00 60 1020.9
20260904170241 32 280 1.6 6.4 0.00 0.00 0.00 60 1020.9
20260904165741 32 0 0.0 6.4 0.00 0.00 0.00 60 1020.9
20260904165241 32 0 0.0 11.3 0.00 0.00 0.00 60 1020.9
20260904164741 32 0 0.0 11.3 0.00 0.00 0.00 61 1021.0
20260904164241 32 0 0.0 4.8 0.00 0.00 0.00 62 1021.0
20260904163742 32 0 0.0 6.4 0.00 0.00 0.00 61 1021.1
20260904163241 32 0 0.0 6.4 0.00 0.00 0.00 61 1021.2
20260904162741 32 0 0.0 9.7 0.00 0.00 0.00 60 1021.3
20260904162242 31 280 1.6 9.7 0.00 0.00 0.00 63 1021.3
20260904161741 31 0 0.0 12.9 0.00 0.00 0.00 63 1021.5
20260904161241 31 280 1.6 12.9 0.00 0.00 0.00 61 1021.5
20260904160741 31 0 0.0 6.4 0.00 0.00 0.00 64 1021.5
20260904160400 31 0 0.0 11.3 0.00 0.00 0.00 65 1021.5
20260904160241 31 0 0.0 11.3 0.00 0.00 0.00 65 1021.5
20260904155741 30 280 1.6 11.3 0.00 0.00 0.00 63 1021.5
20260904155241 30 0 0.0 11.3 0.00 0.00 0.00 65 1021.5
20260904154742 30 0 0.0 6.4 0.00 0.00 0.00 65 1021.5
20260904154241 30 0 0.0 9.7 0.00 0.00 0.00 65 1021.5
20260904153741 30 280 3.2 9.7 0.00 0.00 0.00 65 1021.6
20260904153241 30 0 0.0 11.3 0.00 0.00 0.00 64 1021.6
20260904152741 30 0 0.0 11.3 0.00 0.00 0.00 64 1021.5
20260904152241 30 280 1.6 9.7 0.00 0.00 0.00 64 1021.5
20260904151741 30 0 0.0 3.2 0.00 0.00 0.00 65 1021.5
20260904151241 30 0 0.0 4.8 0.00 0.00 0.00 64 1021.6
20260904150741 30 0 0.0 4.8 0.00 0.00 0.00 65 1021.5
20260904150241 30 0 0.0 4.8 0.00 0.00 0.00 63 1021.6
20260904145727 30 0 0.0 3.2 0.00 0.00 0.00 63 1021.6
20260904144906 30 0 0.0 9.7 0.00 0.00 0.00 66 1021.6
20260904144406 30 0 0.0 9.7 0.00 0.00 0.00 65 1021.6
20260904143906 30 0 0.0 4.8 0.00 0.00 0.00 65 1021.6
20260904143405 29 0 0.0 9.7 0.00 0.00 0.00 65 1021.7
20260904142905 29 0 0.0 9.7 0.00 0.00 0.00 65 1021.6
20260904142405 30 0 0.0 3.2 0.00 0.00 0.00 65 1021.6
20260904141604 29 0 0.0 3.2 0.00 0.00 0.00 65 1021.6
20260904141104 29 0 0.0 0.0 0.00 0.00 0.00 66 1021.6
20260904140604 29 0 0.0 0.0 0.00 0.00 0.00 66 1021.6
20260904140231 28 0 0.0 0.0 0.00 0.00 0.00 67 1021.6
20260904140104 28 0 0.0 0.0 0.00 0.00 0.00 67 1021.6
20260904135604 28 0 0.0 0.0 0.00 0.00 0.00 68 1021.5
20260904135437 28 0 0.0 3.2 0.00 0.00 0.00 67 1021.4
20260904135107 28 0 0.0 0.0 0.00 0.00 0.00 68 1021.5
20260904134608 28 0 0.0 3.2 0.00 0.00 0.00 67 1021.4
20260904134601 28 0 0.0 3.2 0.00 0.00 0.00 68 1021.5
20260904134104 28 0 0.0 3.2 0.00 0.00 0.00 68 1021.5
20260904133604 28 0 0.0 1.6 0.00 0.00 0.00 68 1021.5
20260904133252 28 0 0.0 3.2 0.00 0.00 0.00 69 1021.4
20260904133106 28 0 0.0 3.2 0.00 0.00 0.00 68 1021.5
20260904132606 28 0 0.0 3.2 0.00 0.00 0.00 69 1021.4
20260904132449 27 0 0.0 3.2 0.00 0.00 0.00 69 1021.5
20260904132106 28 0 0.0 0.0 0.00 0.00 0.00 69 1021.5
20260904131604 27 0 0.0 3.2 0.00 0.00 0.00 69 1021.5
20260904131104 27 0 0.0 3.2 0.00 0.00 0.00 69 1021.6
20260904130604 27 0 0.0 0.0 0.00 0.00 0.00 69 1021.6
20260904130105 27 0 0.0 4.8 0.00 0.00 0.00 70 1021.6
20260904125604 27 0 0.0 4.8 0.00 0.00 0.00 70 1021.5
20260904125104 27 0 0.0 4.8 0.00 0.00 0.00 70 1021.6
20260904124604 27 0 0.0 4.8 0.00 0.00 0.00 71 1021.6
20260904124104 27 0 0.0 0.0 0.00 0.00 0.00 71 1021.5
20260904123604 26 0 0.0 0.0 0.00 0.00 0.00 72 1021.5
20260904123106 26 0 0.0 0.0 0.00 0.00 0.00 73 1021.5
20260904122604 26 0 0.0 0.0 0.00 0.00 0.00 74 1021.5
20260904122106 26 0 0.0 0.0 0.00 0.00 0.00 75 1021.4
20260904121459 26 0 0.0 6.4 0.00 0.00 0.00 76 1021.4
20260904120958 26 0 0.0 6.4 0.00 0.00 0.00 76 1021.3
20260904120459 25 0 0.0 9.7 0.00 0.00 0.00 77 1021.3
20260904115959 25 0 0.0 9.7 0.00 0.00 0.00 77 1021.3
20260904115500 25 0 0.0 6.4 0.00 0.00 0.00 77 1021.3
20260904115003 25 0 0.0 3.2 0.00 0.00 0.00 78 1021.3
20260904114457 25 0 0.0 6.4 0.00 0.00 0.00 78 1021.2
20260904113958 25 0 0.0 6.4 0.00 0.00 0.00 78 1021.2
20260904113500 25 0 0.0 6.4 0.00 0.00 0.00 78 1021.1
20260904112957 25 0 0.0 9.7 0.00 0.00 0.00 79 1021.1
20260904112457 25 280 1.6 11.3 0.00 0.00 0.00 79 1021.0
20260904111957 25 280 1.6 12.9 0.00 0.00 0.00 80 1021.0
20260904111458 25 280 1.6 12.9 0.00 0.00 0.00 80 1021.0
20260904111000 25 280 4.8 11.3 0.00 0.00 0.00 79 1021.0
20260904110457 25 280 3.2 9.7 0.00 0.00 0.00 78 1021.0
20260904110204 25 0 0.0 6.4 0.00 0.00 0.00 76 1020.9
20260904105958 25 0 0.0 6.4 0.00 0.00 0.00 76 1020.9
20260904105459 25 0 0.0 3.2 0.00 0.00 0.00 76 1020.8
20260904104958 25 0 0.0 4.8 0.00 0.00 0.00 77 1020.7
20260904104458 25 0 0.0 4.8 0.00 0.00 0.00 78 1020.7
20260904103958 25 0 0.0 3.2 0.00 0.00 0.00 79 1020.6
20260904103458 25 0 0.0 11.3 0.00 0.00 0.00 80 1020.6
20260904102958 25 0 0.0 11.3 0.00 0.00 0.00 80 1020.6
20260904102458 25 0 0.0 6.4 0.00 0.00 0.00 81 1020.6
20260904101958 25 0 0.0 6.4 0.00 0.00 0.00 81 1020.5
20260904101107 25 0 0.0 9.7 0.00 0.00 0.00 82 1020.4
20260904100611 25 0 0.0 6.4 0.00 0.00 0.00 82 1020.5
20260904100046 25 0 0.0 9.7 0.00 0.00 0.00 82 1020.5
20260904095509 25 0 0.0 4.8 0.00 0.00 0.00 82 1020.6
20260904094941 25 0 0.0 3.2 0.00 0.00 0.00 80 1020.6
20260904094346 25 0 0.0 4.8 0.00 0.00 0.00 82 1020.6
20260904093445 25 0 0.0 12.9 0.00 0.00 0.00 82 1020.6
20260904092945 25 0 0.0 11.3 0.00 0.00 0.00 81 1020.5
20260904092445 25 0 0.0 6.4 0.00 0.00 0.00 80 1020.4
20260904091945 25 0 0.0 6.4 0.00 0.00 0.00 81 1020.3
20260904091445 25 0 0.0 9.7 0.00 0.00 0.00 81 1020.2
20260904090949 25 0 0.0 9.7 0.00 0.00 0.00 82 1020.2
20260904090445 25 0 0.0 11.3 0.00 0.00 0.00 81 1020.2
20260904085945 25 0 0.0 11.3 0.00 0.00 0.00 80 1020.1
20260904085445 26 0 0.0 4.8 0.00 0.00 0.00 77 1020.0
20260904084945 26 0 0.0 4.8 0.00 0.00 0.00 77 1020.0
20260904084446 25 0 0.0 9.7 0.00 0.00 0.00 78 1020.1
20260904083947 25 0 0.0 9.7 0.00 0.00 0.00 79 1019.9
20260904083445 25 0 0.0 6.4 0.00 0.00 0.00 80 1019.9
20260904082945 25 0 0.0 6.4 0.00 0.00 0.00 81 1019.8
20260904082445 25 0 0.0 6.4 0.00 0.00 0.00 81 1019.7
20260904081945 25 0 0.0 6.4 0.00 0.00 0.00 80 1019.8
20260904081445 25 0 0.0 3.2 0.00 0.00 0.00 80 1019.8
20260904080946 25 0 0.0 3.2 0.00 0.00 0.00 79 1019.8
20260904080445 25 0 0.0 4.8 0.00 0.00 0.00 79 1019.8
20260904075945 25 0 0.0 4.8 0.00 0.00 0.00 79 1019.9
20260904075445 25 0 0.0 6.4 0.00 0.00 0.00 79 1019.8
20260904074945 25 0 0.0 6.4 0.00 0.00 0.00 79 1019.8
20260904074445 26 0 0.0 9.7 0.00 0.00 0.00 78 1019.8
20260904073947 26 0 0.0 12.9 0.00 0.00 0.00 78 1019.9
20260904073445 26 280 4.8 12.9 0.00 0.00 0.00 78 1019.9
20260904072945 26 280 1.6 9.7 0.00 0.00 0.00 77 1019.9
20260904072406 26 280 1.6 9.7 0.00 0.00 0.00 77 1020.0
20260904071904 26 0 0.0 6.4 0.00 0.00 0.00 77 1020.1
20260904071137 26 280 1.6 14.5 0.00 0.00 0.00 77 1020.1
20260904070635 26 280 1.6 14.5 0.00 0.00 0.00 75 1020.1
20260904070304 27 280 3.2 14.5 0.00 0.00 0.00 74 1020.1
20260904070136 27 280 3.2 14.5 0.00 0.00 0.00 74 1020.1
20260904065637 27 0 0.0 9.7 0.00 0.00 0.00 73 1020.2
20260904065135 27 0 0.0 9.7 0.00 0.00 0.00 73 1020.3
20260904064635 27 0 0.0 6.4 0.00 0.00 0.00 73 1020.4
20260904064135 27 0 0.0 4.8 0.00 0.00 0.00 73 1020.5
20260904063635 27 0 0.0 3.2 0.00 0.00 0.00 74 1020.5
20260904063135 27 0 0.0 6.4 0.00 0.00 0.00 74 1020.6
20260904062635 27 0 0.0 6.4 0.00 0.00 0.00 74 1020.7
20260904062136 27 0 0.0 6.4 0.00 0.00 0.00 74 1020.8
20260904061635 27 0 0.0 6.4 0.00 0.00 0.00 74 1020.9
20260904061136 27 0 0.0 9.7 0.00 0.00 0.00 73 1021.0
20260904060635 27 0 0.0 9.7 0.00 0.00 0.00 73 1021.0
20260904060136 27 0 0.0 9.7 0.00 0.00 0.00 73 1021.2
20260904055635 27 0 0.0 9.7 0.00 0.00 0.00 73 1021.2
20260904055135 27 0 0.0 11.3 0.00 0.00 0.00 73 1021.3
20260904054635 27 0 0.0 11.3 0.00 0.00 0.00 73 1021.3
20260904054135 27 280 1.6 11.3 0.00 0.00 0.00 73 1021.4
20260904053635 27 0 0.0 9.7 0.00 0.00 0.00 73 1021.5
20260904053135 27 0 0.0 14.5 0.00 0.00 0.00 73 1021.5
20260904052635 27 0 0.0 14.5 0.00 0.00 0.00 73 1021.6
20260904052135 27 0 0.0 12.9 0.00 0.00 0.00 73 1021.6
20260904051635 27 0 0.0 12.9 0.00 0.00 0.00 73 1021.8
20260904051137 27 0 0.0 14.5 0.00 0.00 0.00 73 1021.8
20260904050639 27 284 1.6 14.5 0.00 0.00 0.00 73 1021.8
20260904050135 27 286 1.6 12.9 0.00 0.00 0.00 73 1021.9
20260904045635 27 0 0.0 8.0 0.00 0.00 0.00 74 1021.9